This is the latest recevied weather packets stored in our database for station/object VU3HGG-15. If no packets are shown the sender has not sent any weather packets the latest 10 day(s).
| Time | Temp. | Humidity | Pressure | Rain* | Wind** | Luminosity | Snow |
|---|---|---|---|---|---|---|---|
| 1787739119 | 27.22° C | 66% | 908.7 hPa | - | - | - | - |
| 1787738519 | 26.67° C | 67% | 908.7 hPa | - | - | - | - |
| 1787737919 | 26.67° C | 67% | 908.7 hPa | - | - | - | - |
| 1787737319 | 26.67° C | 67% | 908.8 hPa | - | - | - | - |
| 1787736719 | 26.11° C | 69% | 908.9 hPa | - | - | - | - |
| 1787736119 | 26.11° C | 69% | 909 hPa | - | - | - | - |
| 1787735519 | 26.11° C | 68% | 909.1 hPa | - | - | - | - |
| 1787734919 | 25.56° C | 69% | 909.3 hPa | - | - | - | - |
| 1787734320 | 25.56° C | 69% | 909.4 hPa | - | - | - | - |
| 1787733719 | 26.11° C | 69% | 909.5 hPa | - | - | - | - |
| 1787733119 | 26.11° C | 68% | 909.6 hPa | - | - | - | - |
| 1787732519 | 26.67° C | 63% | 909.8 hPa | - | - | - | - |
| 1787732227 | 27.78° C | 63% | 909.7 hPa | - | - | - | - |
| 1787731628 | 27.78° C | 62% | 909.7 hPa | - | - | - | - |
| 1787731027 | 27.78° C | 63% | 909.8 hPa | - | - | - | - |
| 1787730427 | 27.78° C | 63% | 910 hPa | - | - | - | - |
| 1787729827 | 27.78° C | 65% | 910.2 hPa | - | - | - | - |
| 1787729227 | 27.78° C | 64% | 910.5 hPa | - | - | - | - |
| 1787728627 | 27.78° C | 63% | 910.8 hPa | - | - | - | - |
| 1787728027 | 27.78° C | 64% | 910.8 hPa | - | - | - | - |
| 1787727427 | 27.78° C | 64% | 911 hPa | - | - | - | - |
| 1787726827 | 27.78° C | 64% | 911.1 hPa | - | - | - | - |
| 1787726227 | 27.78° C | 62% | 911.2 hPa | - | - | - | - |
| 1787725627 | 27.78° C | 65% | 911.4 hPa | - | - | - | - |
| 1787725027 | 27.78° C | 66% | 911.7 hPa | - | - | - | - |
* Rain since midnight (hover to see other rain measurements)
** Current wind speed in m/s (hover to see current wind gust speed)